Lapse_Rate
6.3 6.2 6.1 5.9 5.7 5.6 5.4 5.4 5.3 5.2 5.1 5.2 5.4 5.4 5.4 5.5 5.5 5.5 5.5 5.6 5.5 5.5 5.4 5.5 5.6 5.6 5.6 5.6 5.6 5.6 5.5 5.5 5.5 5.4 5.3 5.4 5.4 5.4 5.3 5.2 5.0 4.9 4.9 4.9 4.8 4.9 4.9
6.1 6.1 6.0 5.9 5.6 5.5 5.4 5.3 5.2 5.2 5.1 5.1 5.3 5.4 5.5 5.6 5.7 5.7 5.7 5.7 5.6 5.5 5.4 5.5 5.6 5.6 5.6 5.5 5.6 5.6 5.5 5.5 5.3 5.2 5.1 5.2 5.3 5.4 5.2 5.1 5.0 4.9 4.9 4.8 4.8 4.8 4.9
6.0 6.0 5.9 5.7 5.6 5.5 5.4 5.3 5.3 5.3 5.3 5.3 5.5 5.5 5.5 5.8 5.8 5.9 5.8 5.8 5.8 5.7 5.6 5.6 5.6 5.6 5.6 5.6 5.6 5.5 5.4 5.3 5.2 5.1 5.1 4.9 4.9 5.0 4.9 5.0 5.0 5.0 4.8 4.8 4.9 4.9 4.8
6.0 5.9 5.8 5.7 5.6 5.6 5.5 5.5 5.6 5.7 5.6 5.6 5.6 5.6 5.6 5.8 6.0 6.0 6.0 6.1 5.9 5.9 5.8 5.7 5.7 5.7 5.6 5.6 5.5 5.4 5.3 5.2 5.1 5.0 4.9 4.8 4.7 4.8 4.8 4.8 4.8 4.7 4.7 4.7 5.0 4.9 5.0
5.8 5.8 5.8 5.7 5.5 5.5 5.5 5.6 5.8 6.0 6.0 5.9 5.8 5.8 5.8 5.8 5.9 6.1 6.0 6.2 6.0 5.9 5.7 5.8 5.7 5.7 5.6 5.5 5.3 5.2 5.2 5.0 5.0 4.9 4.9 4.7 4.6 4.6 4.7 4.6 4.3 4.5 4.9 4.7 4.7 5.0 5.0
5.7 5.7 5.8 5.8 5.6 5.6 5.7 5.9 6.1 6.3 6.3 6.2 6.1 6.1 6.0 6.1 6.0 6.0 6.1 6.1 6.0 5.8 5.6 5.7 5.7 5.7 5.6 5.6 5.4 5.2 5.1 5.0 4.9 4.9 4.9 4.7 4.6 4.5 4.4 4.4 4.9 4.5 4.5 4.6 4.8 5.0 4.9
5.7 5.7 5.8 5.8 5.8 5.8 5.8 6.1 6.3 6.4 6.5 6.4 6.3 6.2 6.3 6.3 6.4 6.3 6.2 6.1 6.0 5.8 5.7 5.7 5.6 5.6 5.5 5.6 5.4 5.2 5.0 4.9 5.0 5.0 4.9 4.8 4.6 4.4 4.4 4.6 4.6 4.7 4.6 4.7 5.0 5.1 4.8
5.7 5.6 5.6 5.7 5.9 5.9 6.0 6.2 6.4 6.6 6.7 6.7 6.7 6.5 6.4 6.4 6.5 6.5 6.3 6.1 6.0 5.9 5.8 5.7 5.6 5.5 5.6 5.5 5.3 5.0 5.1 5.0 4.9 4.9 5.0 4.9 4.7 4.5 4.5 4.4 4.3 4.6 4.8 4.8 5.1 5.0 5.0
5.6 5.6 5.6 5.6 5.8 6.0 6.1 6.3 6.5 6.7 6.8 6.8 6.8 6.7 6.6 6.4 6.3 6.3 6.3 6.1 5.8 5.7 5.7 5.6 5.4 5.4 5.4 5.3 5.1 5.1 5.2 5.1 5.0 5.0 5.0 4.9 4.7 4.6 4.5 4.3 4.3 4.5 4.9 5.0 4.9 4.8 5.0
5.6 5.7 5.7 5.8 5.9 6.1 6.3 6.4 6.5 6.7 6.7 6.8 6.8 6.8 6.8 6.8 6.6 6.6 6.4 6.3 6.0 5.6 5.5 5.4 5.3 5.3 5.2 5.2 5.1 5.1 5.2 5.2 5.0 5.0 5.0 4.9 4.9 4.7 4.6 4.5 4.5 4.6 4.8 4.8 4.8 4.5 5.1
5.6 5.7 5.7 5.8 6.0 6.0 6.2 6.5 6.5 6.6 6.7 6.7 6.7 6.8 6.8 6.7 6.6 6.5 6.4 6.2 6.0 5.6 5.3 5.3 5.2 5.2 5.1 5.0 4.9 5.0 5.2 5.2 5.2 5.2 5.1 5.0 5.0 4.9 4.7 4.5 4.6 4.6 4.7 5.0 5.0 4.6 4.5
5.7 5.8 5.9 5.8 5.8 5.9 6.1 6.3 6.4 6.6 6.6 6.6 6.6 6.6 6.6 6.6 6.6 6.5 6.4 6.2 5.9 5.8 5.3 5.2 5.2 5.1 5.0 5.0 4.9 4.8 5.1 5.3 5.4 5.5 5.3 5.2 5.2 5.2 4.9 4.8 4.8 4.6 5.0 5.1 5.1 4.9 5.2
5.7 5.8 5.8 5.8 5.7 5.8 6.0 6.0 6.1 6.3 6.4 6.4 6.4 6.4 6.5 6.5 6.6 6.6 6.4 6.3 6.0 5.8 5.4 5.2 5.1 5.2 5.0 5.1 5.0 5.0 5.1 5.3 5.4 5.4 5.5 5.4 5.3 5.2 5.2 5.1 5.0 4.8 4.9 5.1 5.2 5.6 6.5
5.7 5.8 5.8 5.7 5.7 5.7 5.8 5.9 6.0 6.1 6.2 6.3 6.3 6.3 6.4 6.5 6.6 6.6 6.4 6.3 6.1 5.6 5.4 5.2 5.1 5.1 5.0 5.1 5.1 5.0 4.9 4.9 5.0 5.0 5.1 5.1 5.0 5.2 5.2 5.0 4.8 4.8 4.6 4.8 5.2 5.8 6.3
5.7 5.8 5.8 5.7 5.8 5.8 5.8 5.8 6.0 6.0 6.0 6.1 6.3 6.3 6.4 6.5 6.6 6.6 6.4 6.2 5.7 5.3 5.1 5.1 5.1 5.1 5.1 4.9 5.0 4.9 4.8 4.8 4.8 4.8 4.8 4.9 5.0 5.2 5.3 5.1 4.9 4.9 4.6 4.6 4.2 4.4 4.3
5.9 5.9 5.9 5.8 5.9 5.9 5.8 5.9 5.9 6.0 6.0 6.1 6.2 6.3 6.4 6.5 6.5 6.4 6.3 6.0 5.6 5.4 5.3 5.2 5.2 5.2 5.0 5.1 5.0 4.9 4.8 4.8 4.7 4.7 4.6 4.8 4.8 5.5 5.4 5.2 5.1 4.9 4.9 4.7 4.9 5.5 5.3
6.0 6.0 6.0 5.9 6.0 6.0 5.8 5.8 5.9 6.0 6.1 6.1 6.2 6.3 6.3 6.4 6.4 6.2 6.1 5.8 5.7 5.6 5.5 5.3 5.2 5.1 5.1 5.1 5.1 5.0 4.9 4.9 4.7 4.6 4.6 4.4 4.8 5.7 5.4 5.3 5.0 4.8 4.9 4.9 4.8 4.9 5.9
6.2 6.4 6.2 6.0 6.0 6.1 6.0 5.8 5.8 5.9 6.0 6.0 6.2 6.3 6.3 6.4 6.2 6.1 5.9 5.8 5.8 5.6 5.4 5.4 5.4 5.3 5.1 5.0 5.1 5.1 5.0 4.8 4.7 4.6 4.3 4.5 4.3 4.5 5.3 5.4 5.6 5.4 5.4 5.1 5.2 5.1 5.0
6.5 6.4 6.3 6.2 6.1 6.0 6.0 5.9 5.9 5.9 5.9 6.0 6.1 6.2 6.1 6.1 6.0 5.9 5.9 5.9 5.8 5.8 5.7 5.6 5.5 5.4 5.2 5.1 5.1 5.3 5.3 5.2 5.0 4.7 4.5 4.4 4.1 4.4 5.5 5.6 5.4 5.2 5.2 5.1 5.2 5.2 5.1
6.3 6.2 6.2 6.1 6.1 6.0 5.9 6.0 5.8 5.7 5.7 5.8 6.0 6.0 6.0 5.9 5.9 5.8 5.8 5.6 5.7 5.8 5.9 5.7 5.5 5.4 5.3 5.2 5.0 5.2 5.1 5.1 5.1 5.1 5.1 4.6 4.6 4.6 5.2 5.3 4.8 5.2 5.2 4.9 5.1 5.0 5.3
6.4 6.3 6.3 6.2 6.1 6.0 5.9 5.8 5.8 5.8 5.8 5.8 6.0 6.0 6.1 6.0 6.1 6.0 5.9 5.9 5.8 5.8 5.9 5.8 5.5 5.4 5.2 5.0 4.9 5.0 5.2 5.2 5.6 5.6 5.2 4.8 4.6 4.5 4.6 4.8 5.0 6.2 6.8 6.3 5.7 6.8 5.0
6.6 6.5 6.3 6.2 6.2 6.1 5.9 5.8 5.8 5.8 5.9 6.0 6.0 6.1 6.1 6.1 6.1 6.0 6.1 6.0 6.0 5.8 5.7 5.9 5.6 5.3 5.0 5.0 4.7 4.7 4.8 5.2 5.4 5.8 5.4 5.0 4.8 4.5 4.9 5.4 5.6 6.3 6.3 6.7 7.0 7.0 6.0
6.5 6.4 6.2 6.2 6.1 6.2 6.0 5.9 5.7 5.6 5.6 5.8 5.9 5.9 5.9 5.9 5.9 5.9 5.8 5.7 5.8 6.0 6.1 6.0 5.5 5.3 5.3 5.1 4.9 5.0 5.3 5.4 5.3 5.3 5.0 4.9 4.9 4.6 4.4 4.6 4.3 5.5 7.4 7.1 6.5 7.0 6.8
6.2 6.3 6.2 6.1 6.0 5.9 5.8 5.7 5.6 5.7 5.7 5.7 5.8 5.8 5.8 5.7 5.9 6.0 5.8 5.8 5.9 5.9 6.0 5.8 5.3 5.0 4.9 4.9 5.0 5.3 5.6 5.6 5.7 6.0 5.8 5.4 5.1 4.9 4.8 4.9 5.1 6.9 6.8 6.8 6.4 6.6 6.7
6.2 6.1 6.3 6.2 5.9 5.6 5.6 5.4 5.5 5.5 5.6 5.6 5.8 5.7 5.8 5.7 5.9 6.0 5.8 5.9 5.8 5.8 5.9 6.1 5.8 5.2 4.7 4.8 4.5 4.6 5.0 5.2 5.6 5.9 6.2 6.1 5.3 5.1 5.1 4.7 5.5 6.4 6.7 6.3 6.1 6.1 6.4
6.1 6.1 6.2 6.0 6.1 5.8 5.6 5.5 5.4 5.3 5.5 5.6 5.6 5.9 5.8 5.8 5.8 6.1 5.9 6.1 6.0 5.9 6.0 6.1 5.3 5.1 5.0 4.7 5.0 4.8 5.0 5.1 5.0 5.2 5.6 5.8 5.4 5.2 5.1 4.7 5.8 6.7 6.6 6.4 6.0 6.1 6.3
6.0 6.1 5.9 5.9 5.8 5.7 5.5 5.6 5.5 5.6 5.6 5.6 5.6 5.7 5.7 5.7 5.7 5.7 5.7 5.8 5.9 5.7 5.5 5.5 5.3 5.2 5.3 5.4 5.0 5.1 5.0 5.2 5.1 5.4 5.5 5.5 5.1 5.3 5.6 5.3 5.5 6.7 6.7 6.3 5.8 6.4 6.1
5.9 5.8 5.9 5.3 5.9 5.6 5.8 5.4 5.4 5.8 5.7 5.6 5.6 5.5 5.5 5.5 5.5 5.7 5.4 5.8 5.4 5.5 5.1 4.6 4.7 4.9 5.3 5.5 5.3 5.3 5.3 5.4 5.5 5.7 6.0 5.9 5.9 5.9 5.3 4.9 5.4 7.0 6.6 6.2 5.9 6.2 6.4
5.4 5.6 5.5 5.7 5.3 5.7 5.3 5.3 5.5 5.4 5.6 5.6 5.6 5.6 5.5 5.4 5.0 5.3 5.5 5.8 5.1 5.2 5.0 4.9 5.0 4.6 5.0 5.5 5.3 5.0 5.0 5.2 5.5 5.0 5.5 5.4 6.1 6.0 5.7 6.2 6.7 6.7 6.3 6.2 6.2 6.2 6.5
Wind_Speed
11 11 11 13 13 14 15 16 18 19 20 22 23 23 23 21 19 18 14 8 5 5 2 3 2 1 3 4 5 6 13 10 4 3 7 3 8 3 5 4 5 8 5 4 6 5 5
11 11 12 13 13 15 17 19 20 21 22 23 24 25 25 23 20 19 14 5 5 4 4 4 2 2 1 4 5 8 10 5 9 5 7 8 4 4 7 4 3 3 6 9 6 5 5
10 11 12 13 15 16 17 19 20 20 21 23 24 25 25 24 20 20 14 3 4 3 3 3 4 1 10 5 4 7 8 4 5 4 4 4 2 1 2 5 3 7 6 4 7 5 2
10 11 12 13 14 16 17 19 20 20 21 23 24 25 27 26 22 20 12 2 4 3 3 4 3 1 4 2 3 5 7 3 4 5 4 2 4 7 3 5 3 1 2 4 6 6 3
9 11 12 13 15 16 17 19 20 21 22 24 25 28 29 28 26 22 8 2 4 3 4 4 1 2 3 1 2 4 5 4 3 2 4 3 2 4 2 2 3 2 4 5 3 7 3
8 10 12 14 15 17 17 17 20 21 23 24 24 27 27 27 23 23 4 1 4 1 2 1 2 2 3 5 4 4 3 2 2 1 1 3 2 1 2 3 3 5 6 3 7 4 8
8 10 12 14 15 17 18 17 18 21 22 23 23 24 26 25 19 21 2 1 1 2 9 4 1 2 3 6 2 5 4 3 2 3 3 4 2 6 5 2 2 3 6 8 8 2 5
7 10 12 13 14 16 17 18 18 19 21 22 25 24 25 26 12 20 5 5 1 2 6 1 1 1 1 3 3 10 7 3 4 4 4 1 4 3 1 0 3 5 9 6 5 2 4
7 9 11 13 14 15 17 17 19 19 21 22 24 26 28 27 7 5 9 3 1 2 2 3 2 2 3 4 3 8 7 2 5 4 5 2 3 2 2 3 7 9 5 5 6 8 8
9 10 11 13 14 14 16 17 19 19 20 21 23 23 27 24 1 1 4 3 1 2 2 8 4 3 2 2 2 2 4 3 2 4 2 2 3 3 4 3 5 9 2 5 11 7 6
9 10 10 13 14 15 17 16 18 20 21 21 21 21 22 12 1 3 3 3 2 2 1 6 3 3 3 4 5 5 2 1 3 3 3 3 4 4 2 4 2 5 6 8 4 6 6
7 9 10 13 12 14 15 15 17 18 20 21 20 24 14 2 2 2 3 2 2 2 1 2 4 7 3 5 4 7 4 5 1 0 1 1 0 1 3 2 2 9 7 4 2 2 3
7 8 11 13 12 13 13 14 15 16 18 19 21 16 4 1 2 2 1 2 1 3 1 5 3 5 1 6 4 8 5 8 6 4 7 5 0 1 1 4 3 10 8 3 2 2 3
8 9 10 10 9 10 12 13 15 16 19 20 24 4 3 2 1 1 2 2 4 0 1 1 2 2 2 7 2 7 2 3 5 3 2 5 1 4 3 2 4 4 4 3 5 5 10
6 6 8 7 6 9 11 13 15 17 17 18 14 2 0 1 1 2 2 5 2 0 2 5 1 2 1 2 4 5 4 3 3 6 6 6 3 1 1 1 3 2 1 2 4 2 4
6 5 5 5 7 8 10 12 13 15 15 17 2 2 1 7 3 2 2 3 2 0 1 1 3 2 3 5 5 5 3 2 1 2 3 1 6 1 1 2 1 2 2 2 1 5 6
6 5 5 5 7 7 8 10 13 15 19 3 0 1 1 5 3 2 4 2 2 1 1 1 0 2 1 3 2 3 2 1 1 1 1 0 2 1 3 3 1 1 2 2 2 3 4
7 6 6 5 6 7 8 9 11 15 19 2 0 1 2 1 2 2 2 1 1 1 1 0 0 1 1 2 3 2 2 3 3 1 2 1 2 5 9 2 1 3 3 4 3 2 4
9 8 6 6 6 6 6 8 8 11 12 2 2 2 1 3 2 2 2 2 1 2 1 1 1 1 0 1 3 3 2 1 2 2 1 3 2 6 3 3 2 3 2 3 3 2 10
11 9 9 8 7 6 6 4 6 7 7 1 0 0 3 4 2 3 2 1 1 0 1 1 1 1 1 3 3 3 3 1 2 3 0 4 3 8 9 13 10 16 12 8 10 9 14
13 11 10 9 8 7 6 2 2 4 6 1 3 2 1 2 3 3 1 1 1 1 1 1 2 5 4 3 3 4 3 3 3 1 2 2 5 8 14 17 18 21 22 17 17 23 12
13 12 11 10 9 9 8 4 4 2 2 3 1 2 1 2 1 3 1 3 3 1 3 3 4 3 5 5 7 12 9 8 8 3 4 2 4 2 9 16 15 20 17 17 17 21 20
14 13 12 11 11 10 8 7 6 3 2 2 2 1 1 1 1 1 2 3 4 2 4 4 5 3 7 13 11 12 13 12 12 6 6 4 3 1 5 1 8 13 13 8 4 8 6
15 14 12 11 12 11 10 9 8 6 2 1 2 2 2 3 3 3 5 5 6 6 4 2 4 4 2 2 5 9 13 12 11 13 12 5 4 2 5 7 5 3 3 4 11 13 15
17 15 13 12 11 11 9 9 9 9 7 1 2 2 2 2 3 4 7 6 4 5 5 7 9 3 1 2 3 5 3 3 2 3 3 10 6 4 4 4 13 11 2 3 3 8 6
17 17 16 15 13 12 11 9 9 9 10 2 1 1 2 3 6 4 3 5 3 4 3 5 1 1 1 1 2 3 3 1 3 2 2 4 9 5 3 6 8 4 4 4 2 9 4
18 17 15 14 13 11 11 10 10 10 14 4 1 4 3 3 4 5 5 4 4 2 3 1 1 1 1 3 3 4 4 1 4 5 5 4 3 10 12 7 9 6 7 4 3 8 4
18 16 15 13 13 13 10 10 10 11 16 6 1 8 3 3 2 6 5 6 2 3 5 2 1 2 3 4 3 3 3 3 3 3 5 8 7 6 5 5 10 6 6 5 4 2 2
17 15 13 14 13 13 11 11 10 11 14 11 2 3 4 2 2 2 3 4 6 11 6 6 5 3 4 3 2 2 4 3 5 6 2 5 8 4 9 8 1 10 5 3 4 5 4
Wind_Direction
40 36 33 32 30 25 19 15 9 4 2 359 357 358 358 357 348 351 352 341 354 5 73 107 106 82 270 76 50 343 339 347 350 8 41 48 56 88 99 95 92 105 123 88 126 140 124
41 35 33 30 27 23 17 13 8 3 360 358 354 353 355 354 350 349 356 360 23 49 73 79 43 303 224 78 345 341 342 351 16 24 36 33 66 88 91 70 22 82 122 124 142 146 150
40 37 31 25 21 19 13 10 6 2 357 356 353 352 352 352 352 349 353 41 49 60 62 42 5 272 68 71 351 351 8 8 4 17 56 40 70 34 112 110 97 131 135 163 185 188 174
35 30 26 21 16 12 10 7 4 360 356 353 350 351 351 352 348 350 359 39 38 14 356 352 353 260 71 349 344 16 359 11 28 31 70 48 83 85 29 123 98 168 216 250 154 183 155
29 23 17 13 8 5 4 2 2 0 356 353 352 351 350 350 348 352 8 12 4 327 335 343 274 341 64 336 13 346 358 356 339 56 50 73 52 65 141 194 165 176 305 274 259 207 168
20 12 9 6 2 360 359 2 3 360 358 353 352 349 347 348 348 350 10 357 359 18 338 144 109 156 57 348 322 333 343 359 16 308 194 39 45 95 48 342 358 327 308 278 278 177 218
8 4 359 355 356 358 359 1 4 356 353 353 352 347 345 348 346 359 13 284 237 80 41 55 22 52 349 330 262 5 359 312 340 48 14 27 48 21 4 4 4 306 288 286 286 258 268
355 351 350 347 349 352 356 358 357 351 350 351 353 348 343 345 350 14 45 66 50 1 91 78 42 357 296 339 325 17 348 11 25 35 332 192 53 11 347 197 298 298 308 314 282 258 266
339 342 345 349 346 348 353 349 347 348 347 350 350 346 340 341 349 38 61 60 293 202 81 59 43 19 342 343 45 351 360 353 33 40 20 28 44 344 315 308 324 332 300 335 318 312 253
322 328 338 344 345 346 346 343 340 343 346 347 347 343 339 339 85 5 56 342 249 237 132 6 7 38 313 340 83 321 10 350 51 30 2 9 359 348 335 331 334 325 12 316 310 310 318
321 321 332 342 345 344 339 338 343 345 345 348 344 341 340 12 42 48 347 315 184 240 102 348 351 334 355 52 315 35 11 14 48 19 296 24 351 353 339 0 300 316 318 301 300 289 304
316 330 327 333 336 336 337 339 343 342 345 346 344 339 343 14 62 60 333 162 235 187 323 24 334 356 1 25 19 319 15 49 59 137 15 357 264 255 339 305 253 300 287 270 206 261 253
311 321 321 323 329 332 337 338 340 341 343 340 340 342 27 351 23 4 160 228 151 53 357 3 343 356 5 354 10 15 18 33 24 354 8 329 23 63 339 303 200 342 333 326 282 294 310
301 308 314 323 332 337 342 338 337 336 339 341 341 357 37 57 1 321 225 207 76 66 352 11 321 309 46 355 44 355 20 51 60 7 333 353 329 360 14 29 329 6 350 16 321 325 304
290 307 315 323 341 346 340 338 335 339 340 343 339 353 335 43 252 200 248 52 52 120 331 329 308 7 42 17 342 342 35 23 13 0 13 340 281 335 37 336 302 58 360 11 271 251 271
284 299 305 317 323 330 335 334 335 339 335 333 342 325 330 337 182 225 67 105 128 197 323 303 4 347 328 340 339 3 5 57 57 4 305 86 290 159 278 190 101 312 121 256 207 308 300
274 283 285 298 305 317 327 328 327 333 337 336 332 197 77 343 203 47 73 89 154 156 236 357 230 275 288 315 322 329 340 119 217 182 4 171 257 242 271 207 277 204 199 187 281 259 289
250 257 267 274 287 310 321 321 331 341 346 39 91 185 33 262 47 42 80 111 147 140 36 116 132 267 277 325 299 292 282 249 194 232 329 46 309 283 285 358 355 274 255 220 267 251 251
245 247 244 251 259 277 303 325 341 350 10 328 34 326 25 295 92 97 118 119 138 166 179 169 202 244 166 270 291 231 256 339 170 249 352 166 228 299 275 158 112 244 200 248 301 326 263
236 239 241 243 250 253 274 310 328 343 3 86 159 126 31 55 28 91 134 128 158 63 195 193 153 145 199 245 222 290 265 287 177 223 318 179 232 240 274 296 301 283 265 246 249 272 261
231 229 237 237 239 247 255 283 306 340 353 275 10 92 44 82 68 89 88 127 162 228 217 208 204 226 207 255 244 231 241 278 218 166 158 217 244 239 258 274 272 269 270 260 243 244 256
227 226 229 234 235 240 241 230 234 269 358 96 114 153 96 103 152 150 188 188 189 235 210 203 225 190 210 236 239 283 280 285 263 140 174 190 263 243 279 261 269 269 275 259 250 260 251
225 224 225 232 237 234 235 224 222 219 351 113 128 95 265 63 126 203 191 176 196 197 214 240 219 237 244 250 261 275 271 264 255 251 207 198 225 290 270 199 298 277 262 216 198 229 235
219 219 222 231 239 237 227 218 211 207 182 107 150 129 159 158 207 203 192 205 215 222 262 253 214 227 273 17 289 261 255 261 254 249 234 219 183 201 279 301 238 326 154 278 250 257 232
215 213 218 215 223 235 236 226 209 202 193 119 140 159 148 185 214 212 217 217 242 247 240 247 242 249 6 330 282 299 236 236 151 66 213 222 188 239 259 250 290 281 170 182 224 284 259
210 208 206 213 211 218 225 221 217 207 187 133 168 164 136 151 225 211 189 206 237 235 243 231 182 283 177 235 221 251 255 307 241 197 65 179 220 209 196 254 273 326 157 148 151 287 148
202 206 205 214 212 214 221 216 207 196 190 153 195 189 114 173 229 172 209 226 180 218 262 191 193 187 178 194 222 233 241 225 228 222 181 150 189 220 233 255 280 279 146 153 256 328 147
197 199 207 200 220 200 212 214 196 194 184 166 183 196 153 194 225 182 196 207 193 213 256 154 299 193 172 200 209 240 247 226 257 224 194 189 180 198 219 226 271 126 120 221 328 289 260
192 201 206 207 205 216 197 210 209 196 188 173 187 190 148 190 246 206 244 250 256 272 249 188 252 217 173 213 197 238 249 210 242 265 122 259 203 238 214 238 130 200 294 20 359 332 358